CEB161 RPVM-RJAA

Flight info

Callsign CEB161
Flight time N/A
Altitude 38000
Route PONSO4P PONSO G578 TAC DCT LIMLE DCT KEITH DCT 25N136E TAXON A339 MAPDO Y85 MOE Y81 RUTAS
Aircraft A321/M-SDE3FGHIRWY/LB1

Departure

Time 2026-05-04 12:55
Airport Mactan Cebu International Airport (RPVM)

Arrival

Time N/A
Airport Narita International Airport (RJAA)
Time Latitude Longitude Altitude Speed Heading
2026-05-04 12:28 10.31148 123.97722 44 ft 0 kts 45°
2026-05-04 12:40 10.31147 123.97722 44 ft 0 kts 45°
2026-05-04 12:41 10.31137 123.97712 44 ft 2 kts 45°
2026-05-04 12:41 10.31127 123.97701 44 ft 2 kts 45°
2026-05-04 12:42 10.31116 123.97690 44 ft 1 kts 64°
2026-05-04 12:42 10.31115 123.97675 44 ft 2 kts 114°
2026-05-04 12:42 10.31120 123.97669 44 ft 0 kts 138°
2026-05-04 12:42 10.31109 123.97681 44 ft 4 kts 134°
2026-05-04 12:43 10.31080 123.97710 44 ft 5 kts 135°
2026-05-04 12:43 10.31067 123.97723 44 ft 0 kts 135°
2026-05-04 12:50 10.31065 123.97725 44 ft 1 kts 135°
2026-05-04 12:50 10.31054 123.97736 44 ft 3 kts 135°
2026-05-04 12:50 10.31035 123.97755 44 ft 4 kts 137°
2026-05-04 12:50 10.31000 123.97764 44 ft 6 kts 192°
2026-05-04 12:51 10.30959 123.97738 44 ft 8 kts 224°
2026-05-04 12:51 10.30916 123.97695 44 ft 9 kts 225°
2026-05-04 12:51 10.30864 123.97643 44 ft 11 kts 225°
2026-05-04 12:51 10.30806 123.97584 44 ft 12 kts 225°
2026-05-04 12:52 10.30740 123.97517 44 ft 13 kts 225°
2026-05-04 12:52 10.30670 123.97446 44 ft 14 kts 225°
2026-05-04 12:52 10.30595 123.97371 44 ft 15 kts 224°
2026-05-04 12:52 10.30521 123.97297 44 ft 14 kts 224°
2026-05-04 12:53 10.30449 123.97225 44 ft 15 kts 225°
2026-05-04 12:53 10.30392 123.97169 44 ft 8 kts 214°
2026-05-04 12:53 10.30330 123.97169 44 ft 7 kts 140°
2026-05-04 12:53 10.30310 123.97214 44 ft 7 kts 79°
2026-05-04 12:54 10.30326 123.97240 44 ft 0 kts 44°
2026-05-04 12:54 10.30327 123.97242 44 ft 0 kts 44°
2026-05-04 12:54 10.30408 123.97321 44 ft 48 kts 44°
2026-05-04 12:55 10.30826 123.97741 44 ft 117 kts 45°
2026-05-04 12:55 10.31549 123.98467 56 ft 172 kts 44°
2026-05-04 12:55 10.32391 123.99315 687 ft 172 kts 44°
2026-05-04 12:55 10.32672 123.99609 919 ft 173 kts 45°
2026-05-04 12:57 10.38010 124.05601 3170 ft 238 kts 46°
2026-05-04 12:57 10.38740 124.06460 3366 ft 249 kts 52°
2026-05-04 12:57 10.39609 124.08072 3707 ft 265 kts 61°
2026-05-04 12:57 10.41097 124.10045 4464 ft 268 kts 42°
2026-05-04 12:58 10.42434 124.11324 5090 ft 270 kts 41°
2026-05-04 12:58 10.43349 124.12209 5496 ft 272 kts 42°
2026-05-04 12:58 10.45126 124.14011 6292 ft 277 kts 44°
2026-05-04 12:58 10.46012 124.14947 6692 ft 279 kts 44°
2026-05-04 12:59 10.47344 124.16389 7288 ft 282 kts 45°
2026-05-04 12:59 10.48691 124.17873 7881 ft 286 kts 45°
2026-05-04 12:59 10.50027 124.19364 8454 ft 289 kts 45°
2026-05-04 12:59 10.50464 124.19853 8638 ft 290 kts 45°